Zurück zum Katalog

ACCENTURE-1

AktivWissenschaftSSO
NORAD 66767·PAYLOAD·🇬🇧 United Kingdom

Gestartet Nov 28, 2025 von Vandenberg Space Force Base

Loading…

Nächste Überflüge (nächste 24 Stunden)

TLE

AktuellSource: Space-Track

Epoche: Sep 14, 2026, 10:50 UTC

1 66767U 25276DF  26257.45153353  .00002684  00000-0  12589-3 0  9993
2 66767  97.4088 329.5467 0001190 114.7789 245.3570 15.20521317 43992

Verfolge ACCENTURE-1 in Echtzeit mit AllMySat

Download on the App Store